Regional Weather Roundup
Issued by NWS Burlington, VT

Current Version | Previous Version | Graphics & Text | Print | Product List | Glossary On
Versions: 1 2 3 4 5 6 7 8 9 10 11 12 13 14 15 16 17 18 19 20 21 22 23 24 25 26 27 28 29 30 31 32 33 34 35 36 37 38 39 40 41 42 43 44 45 46 47 48 49 50
000
ASUS41 KBTV 040830
RWRBTV
VERMONT REGIONAL WEATHER ROUNDUP
NATIONAL WEATHER SERVICE BURLINGTON VT
400 AM EDT SAT APR 04 2020

NOTE: "FAIR" INDICATES FEW OR NO CLOUDS BELOW 12,000 FEET WITH NO
SIGNIFICANT WEATHER AND/OR OBSTRUCTIONS TO VISIBILITY.

* THESE REPORTS ARE NOT UNDER NWS QUALITY CONTROL AND/OR DO NOT
  REPORT WEATHER SUCH AS PRECIPITATION AND FOG.

VTZ001>019-040900-
_____VERMONT_____


CITY           SKY/WX    TMP DP  RH WIND       PRES   REMARKS
BURLINGTON     CLOUDY    40  36  86 CALM      29.99S
MONTPELIER     MOCLDY    36  34  92 CALM      30.02R
MORRISVILLE    CLOUDY    35  34  96 CALM      30.01R
ST. JOHNSBURY*   N/A     37  34  89 MISG      29.98R
LYNDONVILLE*   MOCLDY    40  33  77 N3        30.01R
MIDDLEBURY*    CLOUDY    38  38  97 CALM      29.98S
RUTLAND*       CLOUDY    42  42 100 N6        29.98R
SPRINGFIELD    CLOUDY    43  38  82 NE5       29.99R
HIGHGATE*      FAIR      41  36  82 E3        30.00S
NEWPORT*       FAIR      34  32  92 CALM      30.01S
BENNINGTON     CLOUDY    45  39  79 N5        29.94R
ISLAND POND*     N/A     28 N/A N/A CALM        N/A
GALLUP MILLS*    N/A     36 N/A N/A MISG        N/A
LAKE EDEN*       N/A     36 N/A N/A E6          N/A  WCI  31
MT. MANSFIELD*   N/A     39 N/A N/A CALM        N/A

_____LAKE CHAMPLAIN_____


CITY           SKY/WX    TMP DP  RH WIND       PRES   REMARKS
BURTON ISLAND*   N/A     39  37  93 NW2         N/A
COLCHESTER RF*   N/A     41  36  81 NW9         N/A
DIAMOND ISL*     N/A     43  37  81 N12         N/A

$$

NYZ007-026>031-035-052-083-087-040900-
_____NORTHERN NEW YORK_____


CITY           SKY/WX    TMP DP  RH WIND       PRES   REMARKS
PLATTSBURGH    FAIR      40  35  83 CALM      29.99S
SARANAC LAKE   CLOUDY    36  33  89 CALM      29.95S
MASSENA        FAIR      38  32  79 N10       30.03S WCI  31
OGDENSBURG*    CLOUDY    37  36  93 NE5       29.99S
POTSDAM*       CLOUDY    37  36  93 NE6       30.00S
WATERTOWN      CLOUDY    42  40  92 E3        29.99R
FT DRUM        CLOUDY    39  39 100 N3        29.98R
ALBANY         LGT RAIN  47  40  76 N3        29.95S
GLENS FALLS    CLOUDY    44  40  85 N5        29.98R

$$
NHZ002-005-011-040900-
_____NEW HAMPSHIRE_____


CITY           SKY/WX    TMP DP  RH WIND       PRES   REMARKS
LEBANON        CLOUDY    42  40  92 CALM      29.98R
KEENE          CLOUDY    43  39  87 N7        29.97R
MT WASHINGTON  FOG       23  23 100 NE9         N/A  VSB 1/16WCI  13
PLYMOUTH       MOCLDY    36  35  96 CALM      30.00R
WHITEFIELD     FAIR      40  33  76 E9G18     29.98R

$$

_____REGIONAL QUEBEC LOCATIONS_____


CITY           SKY/WX    TMP DP  RH WIND       PRES   REMARKS
MONTREAL       PTCLDY    36  32  87 N12       30.04R WCI  27
QUEBEC CITY    CLOUDY    36  32  87 E16       30.11S WCI  26
SHERBROOKE     CLOUDY    36  32  87 NE7       30.02R WCI  30

_____REGIONAL ONTARIO LOCATIONS_____


CITY           SKY/WX    TMP DP  RH WIND       PRES   REMARKS
OTTAWA         MOCLDY    39  32  75 NE9       30.04R

______KEY______
VSB  - VISIBILITY IN MILES
WCI  - WIND CHILL INDEX
HX   - HEAT INDEX
$$
NNNN



USA.gov is the U.S. government's official web portal to all federal, state and local government web resources and services.